contact:dominique.lefevre@mio.osupytheas.fr, maurice.libes@osupytheas.fr, didier.mallarino@osupytheas.fr
Project:EMSO http://www.emso-fr.org/EMSO-France
Depth: 2436.0 m
Title:EMSO Ligure Ouest : Data MII capteur AQUADOPP
Date,Latitude,Longitude,X_East,Y_North,Z_Up,Amplitude_X,Amplitude_Y,Amplitude_Z,Batterie,SoundSpeed,Heading,Pitch,Roll,Pressure,TIS,Speed,Direction
, degrees North, degrees East, m.s-1, m.s-1,m.s-1, 1, 1, 1, Volt, m.s-1, degree, degree, degree, dbar, degree_C, m.s-1, degree
2019-06-09T00:09:05,42.805,6.029,0.062,-0.017,-0.006,99.0,103.0,97.0,13.4,1505.2,324.1,-0.8,1.9,2470.295,13.29,0.064,105.3
2019-06-09T00:12:06,42.805,6.029,0.028,-0.006,0.011,102.0,104.0,96.0,13.3,1505.2,323.7,-0.8,1.9,2470.263,13.3,0.028,102.1
2019-06-09T00:15:07,42.805,6.029,0.059,-0.029,0.017,99.0,102.0,97.0,13.3,1505.3,326.1,-0.8,1.8,2470.267,13.31,0.065,116.2
2019-06-09T00:18:08,42.805,6.029,0.046,-0.002,0.02,99.0,102.0,97.0,13.4,1505.3,324.6,-0.7,1.8,2470.281,13.31,0.046,92.5
2019-06-09T00:21:09,42.805,6.029,0.072,-0.003,0.0,98.0,102.0,97.0,13.4,1505.3,327.9,-0.7,1.8,2470.239,13.32,0.072,92.4
2019-06-09T00:24:10,42.805,6.029,0.029,-0.01,-0.015,101.0,102.0,97.0,13.4,1505.3,325.9,-0.7,1.9,2470.217,13.32,0.03,109.0
2019-06-09T00:27:11,42.805,6.029,0.036,-0.041,-0.035,100.0,103.0,97.0,13.4,1505.3,325.0,-0.7,1.8,2470.217,13.32,0.054,138.7
2019-06-09T00:30:12,42.805,6.029,0.055,0.014,0.003,100.0,102.0,98.0,13.4,1505.3,326.7,-0.7,1.8,2470.215,13.32,0.056,75.7
2019-06-09T00:33:13,42.805,6.029,0.033,-0.007,-0.009,101.0,104.0,97.0,13.4,1505.3,324.6,-0.8,1.8,2470.248,13.32,0.033,102.0
2019-06-09T00:36:14,42.805,6.029,0.025,-0.024,-0.019,100.0,103.0,97.0,13.4,1505.3,325.4,-0.7,1.8,2470.243,13.32,0.034,133.8
2019-06-09T00:39:15,42.805,6.029,0.06,-0.004,0.018,100.0,102.0,96.0,13.4,1505.3,324.0,-0.7,1.8,2470.233,13.32,0.06,93.8
2019-06-09T00:42:16,42.805,6.029,0.065,-0.028,-0.001,100.0,102.0,96.0,13.4,1505.3,327.0,-0.7,1.9,2470.217,13.32,0.07,113.3
2019-06-09T00:45:17,42.805,6.029,0.055,-0.006,0.001,101.0,103.0,97.0,13.3,1505.3,327.2,-0.8,1.8,2470.234,13.32,0.055,96.2
2019-06-09T00:48:18,42.805,6.029,0.035,-0.012,0.0,100.0,102.0,96.0,13.3,1505.3,325.3,-0.8,1.8,2470.188,13.32,0.037,108.9
2019-06-09T00:51:19,42.805,6.029,0.033,-0.024,-0.03,100.0,106.0,99.0,13.4,1505.3,324.1,-0.7,1.9,2470.168,13.32,0.04,126.0
2019-06-09T00:54:20,42.805,6.029,0.035,-0.017,-0.022,99.0,103.0,98.0,13.4,1505.3,327.7,-0.7,1.8,2470.22,13.32,0.038,115.9
2019-06-09T00:57:21,42.805,6.029,0.042,-0.003,-0.003,100.0,103.0,97.0,13.4,1505.3,323.6,-0.7,1.8,2470.212,13.32,0.042,94.1
2019-06-09T01:00:22,42.805,6.029,0.054,-0.019,0.014,100.0,103.0,97.0,13.4,1505.3,326.8,-0.7,1.9,2470.209,13.32,0.057,109.4
2019-06-09T01:03:23,42.805,6.029,0.026,0.003,-0.002,99.0,104.0,96.0,13.4,1505.3,324.7,-0.8,1.8,2470.174,13.32,0.026,83.4
2019-06-09T01:06:24,42.805,6.029,0.048,-0.024,-0.006,100.0,103.0,96.0,13.4,1505.3,326.8,-0.7,1.8,2470.169,13.32,0.053,116.6
2019-06-09T01:09:25,42.805,6.029,0.068,0.005,-0.004,98.0,105.0,95.0,13.3,1505.3,322.9,-0.7,1.8,2470.22,13.32,0.068,85.8
2019-06-09T01:12:26,42.805,6.029,0.043,-0.001,-0.013,99.0,102.0,95.0,13.4,1505.3,324.2,-0.8,1.9,2470.203,13.32,0.043,91.3
2019-06-09T01:15:27,42.805,6.029,0.066,-0.009,0.0,100.0,101.0,96.0,13.4,1505.3,328.4,-0.7,1.8,2470.213,13.32,0.066,97.8
2019-06-09T01:18:28,42.805,6.029,0.059,-0.027,-0.049,98.0,101.0,95.0,13.4,1505.3,323.2,-0.7,1.8,2470.179,13.32,0.064,114.6
2019-06-09T01:21:29,42.805,6.029,0.035,-0.016,-0.014,99.0,102.0,97.0,13.3,1505.3,325.9,-0.7,1.8,2470.212,13.32,0.038,114.6
2019-06-09T01:24:30,42.805,6.029,0.042,0.002,0.001,99.0,102.0,96.0,13.4,1505.3,324.8,-0.8,1.8,2470.241,13.32,0.042,87.3
2019-06-09T01:27:31,42.805,6.029,0.066,-0.03,-0.023,99.0,102.0,97.0,13.3,1505.3,327.5,-0.8,1.9,2470.188,13.32,0.072,114.4
2019-06-09T01:30:32,42.805,6.029,0.051,-0.044,-0.027,99.0,102.0,96.0,13.4,1505.3,325.9,-0.8,1.8,2470.2,13.32,0.067,130.8
2019-06-09T01:33:33,42.805,6.029,0.04,0.001,-0.025,99.0,102.0,96.0,13.4,1505.3,324.6,-0.8,1.9,2470.151,13.32,0.04,88.6
2019-06-09T01:36:34,42.805,6.029,0.081,-0.016,-0.003,99.0,102.0,96.0,13.4,1505.3,327.5,-0.7,1.8,2470.177,13.32,0.082,101.2
2019-06-09T01:39:35,42.805,6.029,0.03,-0.016,-0.024,99.0,101.0,95.0,13.3,1505.3,323.0,-0.7,1.8,2470.138,13.32,0.034,118.1
2019-06-09T01:42:36,42.805,6.029,0.069,0.003,0.018,98.0,101.0,95.0,13.4,1505.3,326.9,-0.7,1.9,2470.198,13.32,0.069,87.5
2019-06-09T01:45:37,42.805,6.029,0.059,-0.017,-0.039,98.0,101.0,96.0,13.4,1505.3,326.0,-0.7,1.8,2470.145,13.32,0.061,106.1
2019-06-09T01:48:38,42.805,6.029,0.032,-0.019,-0.027,99.0,102.0,96.0,13.4,1505.3,325.7,-0.7,1.8,2470.185,13.32,0.037,120.7
2019-06-09T01:51:39,42.805,6.029,0.066,-0.01,-0.012,99.0,102.0,96.0,13.3,1505.3,328.1,-0.7,1.8,2470.16,13.32,0.066,98.6
2019-06-09T01:54:40,42.805,6.029,0.049,-0.014,-0.03,99.0,102.0,96.0,13.3,1505.3,323.4,-0.7,1.8,2470.163,13.32,0.05,105.9
2019-06-09T01:57:41,42.805,6.029,0.045,-0.003,-0.036,98.0,101.0,95.0,13.3,1505.3,326.2,-0.7,1.8,2470.194,13.32,0.045,93.8
2019-06-09T02:00:42,42.805,6.029,0.068,-0.001,0.013,99.0,102.0,97.0,13.4,1505.3,324.5,-0.8,1.9,2470.195,13.32,0.068,90.8
2019-06-09T02:03:43,42.805,6.029,0.076,-0.018,-0.009,97.0,102.0,96.0,13.4,1505.3,322.7,-0.8,1.9,2470.145,13.32,0.078,103.3
2019-06-09T02:06:44,42.805,6.029,0.062,-0.027,0.017,97.0,100.0,96.0,13.3,1505.3,327.1,-0.8,1.9,2470.198,13.32,0.067,113.5
2019-06-09T02:09:45,42.805,6.029,0.058,-0.028,-0.013,99.0,102.0,96.0,13.4,1505.3,325.8,-0.8,1.8,2470.163,13.32,0.064,115.8
2019-06-09T02:12:46,42.805,6.029,0.049,-0.038,-0.024,101.0,100.0,97.0,13.4,1505.3,326.8,-0.7,1.8,2470.146,13.32,0.062,127.8
2019-06-09T02:15:47,42.805,6.029,0.061,-0.01,-0.014,98.0,101.0,96.0,13.3,1505.3,323.0,-0.7,1.9,2470.186,13.32,0.061,99.3
2019-06-09T02:18:48,42.805,6.029,0.045,0.006,0.0,97.0,102.0,97.0,13.4,1505.3,326.2,-0.7,1.8,2470.167,13.32,0.045,82.4
2019-06-09T02:21:49,42.805,6.029,0.045,-0.02,-0.03,99.0,105.0,96.0,13.4,1505.3,327.3,-0.8,1.9,2470.159,13.32,0.049,114.0
2019-06-09T02:24:50,42.805,6.029,0.061,-0.006,-0.003,99.0,104.0,97.0,13.3,1505.3,326.3,-0.8,1.9,2470.13,13.32,0.061,95.6
2019-06-09T02:27:51,42.805,6.029,0.063,-0.004,-0.021,99.0,104.0,96.0,13.4,1505.3,324.9,-0.7,1.8,2470.14,13.32,0.063,93.6
2019-06-09T02:30:52,42.805,6.029,0.05,-0.027,-0.002,98.0,100.0,98.0,13.4,1505.3,324.6,-0.8,1.9,2470.141,13.32,0.056,118.4
2019-06-09T02:33:53,42.805,6.029,0.057,-0.026,-0.022,98.0,101.0,96.0,13.4,1505.3,327.7,-0.7,1.8,2470.207,13.32,0.062,114.5
2019-06-09T02:36:54,42.805,6.029,0.076,-0.005,-0.023,99.0,102.0,98.0,13.4,1505.3,326.7,-0.7,1.8,2470.133,13.32,0.076,93.8
2019-06-09T02:39:55,42.805,6.029,0.056,0.0,-0.04,96.0,104.0,97.0,13.3,1505.3,324.9,-0.7,1.8,2470.176,13.32,0.056,90.0
2019-06-09T02:42:56,42.805,6.029,0.048,-0.015,-0.043,98.0,103.0,97.0,13.4,1505.3,327.6,-0.7,1.8,2470.216,13.32,0.05,107.4
2019-06-09T02:45:57,42.805,6.029,0.051,-0.009,-0.011,98.0,104.0,96.0,13.3,1505.3,326.1,-0.7,1.8,2470.137,13.32,0.051,100.0
2019-06-09T02:48:58,42.805,6.029,0.051,0.015,0.006,100.0,104.0,96.0,13.3,1505.3,327.3,-0.7,1.8,2470.156,13.32,0.053,73.6
2019-06-09T02:51:59,42.805,6.029,0.071,0.008,0.029,98.0,108.0,96.0,13.4,1505.3,325.3,-0.7,1.8,2470.17,13.32,0.071,83.6
2019-06-09T02:55:00,42.805,6.029,0.066,-0.007,0.004,100.0,104.0,97.0,13.4,1505.3,325.2,-0.7,1.8,2470.119,13.32,0.066,96.1
2019-06-09T02:58:01,42.805,6.029,0.061,-0.034,-0.007,100.0,102.0,96.0,13.3,1505.3,326.2,-0.8,1.9,2470.122,13.32,0.069,119.1
2019-06-09T03:01:02,42.805,6.029,0.053,-0.031,-0.036,98.0,103.0,97.0,13.3,1505.3,326.3,-0.7,1.9,2470.164,13.32,0.061,120.3
2019-06-09T03:04:03,42.805,6.029,0.053,-0.009,0.006,99.0,102.0,96.0,13.4,1505.3,322.9,-0.8,1.9,2470.182,13.32,0.053,99.6
2019-06-09T03:07:04,42.805,6.029,0.056,-0.019,-0.032,102.0,105.0,97.0,13.4,1505.3,324.7,-0.7,1.9,2470.156,13.32,0.059,108.7
2019-06-09T03:10:05,42.805,6.029,0.027,-0.015,-0.035,100.0,104.0,97.0,13.4,1505.3,325.9,-0.7,1.9,2470.106,13.32,0.03,119.1
2019-06-09T03:13:06,42.805,6.029,0.048,-0.018,-0.007,98.0,106.0,96.0,13.4,1505.3,327.3,-0.8,1.8,2470.165,13.32,0.051,110.6
2019-06-09T03:16:07,42.805,6.029,0.04,-0.002,-0.027,98.0,104.0,96.0,13.4,1505.3,328.4,-0.7,1.8,2470.141,13.32,0.04,92.9
2019-06-09T03:19:08,42.805,6.029,0.055,-0.006,-0.004,99.0,104.0,97.0,13.4,1505.3,325.7,-0.7,1.8,2470.098,13.32,0.055,96.2
2019-06-09T03:22:09,42.805,6.029,0.025,-0.009,-0.036,100.0,104.0,97.0,13.4,1505.3,326.3,-0.7,1.8,2470.095,13.32,0.026,109.8
2019-06-09T03:25:10,42.805,6.029,0.051,-0.008,-0.021,98.0,105.0,97.0,13.4,1505.3,324.1,-0.7,1.8,2470.205,13.32,0.051,98.9
2019-06-09T03:28:11,42.805,6.029,0.038,-0.004,-0.033,98.0,105.0,96.0,13.4,1505.3,326.0,-0.8,1.8,2470.203,13.32,0.038,96.0
2019-06-09T03:31:12,42.805,6.029,0.05,0.013,0.001,101.0,104.0,96.0,13.4,1505.3,323.2,-0.7,1.9,2470.1,13.32,0.051,75.4
2019-06-09T03:34:13,42.805,6.029,0.08,-0.021,-0.025,98.0,103.0,97.0,13.4,1505.3,323.5,-0.8,1.9,2470.127,13.32,0.082,104.7
2019-06-09T03:37:14,42.805,6.029,0.051,-0.009,-0.009,99.0,105.0,96.0,13.4,1505.3,326.0,-0.8,1.8,2470.157,13.32,0.051,100.0
2019-06-09T03:40:15,42.805,6.029,0.029,0.011,0.003,98.0,104.0,96.0,13.4,1505.3,325.5,-0.7,1.9,2470.108,13.32,0.031,69.2
2019-06-09T03:43:16,42.805,6.029,0.039,-0.001,-0.006,98.0,104.0,96.0,13.3,1505.3,327.3,-0.8,1.9,2470.15,13.32,0.039,91.5
2019-06-09T03:46:17,42.805,6.029,0.049,-0.007,-0.02,100.0,105.0,96.0,13.4,1505.3,323.7,-0.7,1.8,2470.132,13.32,0.049,98.1
2019-06-09T03:49:18,42.805,6.029,0.046,-0.025,-0.009,100.0,106.0,97.0,13.4,1505.3,325.1,-0.7,1.8,2470.123,13.32,0.052,118.5
2019-06-09T03:52:19,42.805,6.029,0.07,-0.011,0.0,98.0,106.0,97.0,13.4,1505.3,327.5,-0.7,1.8,2470.159,13.32,0.07,98.9
2019-06-09T03:55:20,42.805,6.029,0.029,-0.01,-0.018,100.0,104.0,95.0,13.3,1505.3,326.9,-0.7,1.8,2470.098,13.32,0.03,109.0
2019-06-09T03:58:21,42.805,6.029,0.064,-0.001,0.0,99.0,104.0,96.0,13.3,1505.3,325.4,-0.7,1.9,2470.143,13.32,0.064,90.9
2019-06-09T04:01:22,42.805,6.029,0.053,0.004,-0.01,99.0,106.0,97.0,13.4,1505.3,326.3,-0.7,1.8,2470.103,13.32,0.053,85.7
2019-06-09T04:04:23,42.805,6.029,0.034,0.0,-0.031,99.0,105.0,97.0,13.3,1505.3,324.8,-0.8,1.9,2470.132,13.32,0.034,90.0
2019-06-09T04:07:24,42.805,6.029,0.042,0.002,-0.013,99.0,102.0,97.0,13.3,1505.3,326.1,-0.8,1.8,2470.107,13.32,0.042,87.3
2019-06-09T04:10:25,42.805,6.029,0.044,0.001,-0.029,98.0,107.0,96.0,13.3,1505.3,325.3,-0.8,1.9,2470.159,13.32,0.044,88.7
2019-06-09T04:13:26,42.805,6.029,0.044,-0.013,-0.007,100.0,105.0,98.0,13.3,1505.3,327.7,-0.7,1.8,2470.123,13.32,0.045,106.5
2019-06-09T04:16:27,42.805,6.029,0.03,0.01,-0.017,101.0,106.0,97.0,13.4,1505.3,323.2,-0.7,1.9,2470.08,13.32,0.031,71.6
2019-06-09T04:19:28,42.805,6.029,0.038,-0.012,-0.042,99.0,106.0,97.0,13.4,1505.3,325.1,-0.7,1.8,2470.105,13.32,0.039,107.5
2019-06-09T04:22:29,42.805,6.029,0.049,-0.012,0.0,100.0,104.0,97.0,13.3,1505.3,322.7,-0.7,1.8,2470.112,13.32,0.05,103.8
2019-06-09T04:25:30,42.805,6.029,0.042,-0.009,-0.002,100.0,107.0,97.0,13.3,1505.3,324.2,-0.8,1.9,2470.109,13.32,0.042,102.1
2019-06-09T04:28:31,42.805,6.029,0.047,0.0,-0.027,103.0,105.0,96.0,13.4,1505.3,324.6,-0.7,1.9,2470.077,13.32,0.047,90.0
2019-06-09T04:31:32,42.805,6.029,0.037,-0.012,-0.01,102.0,107.0,96.0,13.4,1505.3,327.0,-0.7,1.8,2470.091,13.32,0.038,108.0
2019-06-09T04:34:33,42.805,6.029,0.031,-0.014,-0.022,99.0,108.0,96.0,13.4,1505.3,327.5,-0.8,1.8,2470.077,13.32,0.034,114.3
2019-06-09T04:37:34,42.805,6.029,0.011,-0.014,-0.022,101.0,104.0,97.0,13.4,1505.3,322.8,-0.8,1.8,2470.077,13.32,0.017,141.8
2019-06-09T04:40:35,42.805,6.029,0.049,-0.013,0.03,99.0,105.0,97.0,13.3,1505.3,326.7,-0.7,1.9,2470.121,13.32,0.05,104.9
2019-06-09T04:43:36,42.805,6.029,0.024,0.024,-0.02,100.0,105.0,97.0,13.3,1505.3,326.5,-0.7,1.8,2470.094,13.32,0.033,45.0
2019-06-09T04:46:37,42.805,6.029,0.06,-0.008,-0.015,100.0,105.0,97.0,13.3,1505.3,327.2,-0.7,1.9,2470.088,13.32,0.06,97.6
2019-06-09T04:49:38,42.805,6.029,0.032,-0.008,-0.045,101.0,106.0,98.0,13.4,1505.3,324.4,-0.7,1.8,2470.086,13.32,0.032,104.0
2019-06-09T04:52:39,42.805,6.029,0.036,0.001,-0.017,100.0,107.0,97.0,13.4,1505.3,323.0,-0.7,1.8,2470.095,13.32,0.036,88.4
2019-06-09T04:55:40,42.805,6.029,0.068,-0.016,0.01,99.0,105.0,98.0,13.3,1505.3,324.8,-0.7,1.9,2470.075,13.32,0.069,103.2
2019-06-09T04:58:41,42.805,6.029,0.045,0.003,-0.033,100.0,106.0,97.0,13.3,1505.3,327.0,-0.7,1.9,2470.078,13.32,0.045,86.2
2019-06-09T05:01:42,42.805,6.029,0.062,-0.013,-0.002,100.0,104.0,97.0,13.3,1505.3,325.8,-0.8,1.8,2470.101,13.32,0.063,101.8
2019-06-09T05:04:43,42.805,6.029,0.049,-0.007,-0.031,99.0,104.0,98.0,13.4,1505.3,325.4,-0.7,1.8,2470.079,13.32,0.049,98.1
2019-06-09T05:07:44,42.805,6.029,0.039,-0.005,-0.002,101.0,105.0,97.0,13.4,1505.3,325.2,-0.7,1.8,2470.047,13.32,0.039,97.3
2019-06-09T05:10:45,42.805,6.029,0.045,-0.009,-0.014,102.0,107.0,98.0,13.4,1505.3,324.2,-0.7,1.9,2470.062,13.32,0.045,101.3
2019-06-09T05:13:46,42.805,6.029,0.068,-0.016,-0.035,100.0,103.0,97.0,13.4,1505.3,326.8,-0.8,1.8,2470.065,13.32,0.069,103.2
2019-06-09T05:16:47,42.805,6.029,0.057,-0.006,-0.016,101.0,103.0,97.0,13.3,1505.3,326.8,-0.8,1.8,2470.065,13.32,0.057,96.0
2019-06-09T05:19:48,42.805,6.029,0.064,-0.009,-0.041,99.0,105.0,97.0,13.3,1505.3,326.5,-0.7,1.8,2470.086,13.32,0.064,98.0
2019-06-09T05:22:49,42.805,6.029,0.05,-0.005,-0.004,101.0,104.0,98.0,13.4,1505.3,326.1,-0.8,1.9,2470.084,13.32,0.05,95.7
2019-06-09T05:25:50,42.805,6.029,0.065,0.0,-0.018,100.0,103.0,97.0,13.4,1505.3,325.4,-0.7,1.9,2470.067,13.32,0.064,90.0
2019-06-09T05:28:51,42.805,6.029,0.04,-0.018,-0.033,100.0,103.0,98.0,13.4,1505.3,324.5,-0.8,1.8,2470.045,13.32,0.043,114.2
2019-06-09T05:31:52,42.805,6.029,0.038,-0.018,-0.042,101.0,105.0,97.0,13.4,1505.3,327.0,-0.8,1.8,2470.045,13.32,0.042,115.3
2019-06-09T05:34:53,42.805,6.029,0.046,-0.023,-0.03,100.0,104.0,97.0,13.4,1505.3,325.2,-0.7,1.8,2470.019,13.32,0.051,116.6
2019-06-09T05:37:54,42.805,6.029,0.047,-0.014,-0.028,100.0,105.0,97.0,13.3,1505.3,323.8,-0.8,1.8,2470.058,13.32,0.049,106.6
2019-06-09T05:40:55,42.805,6.029,0.063,-0.026,-0.002,100.0,103.0,97.0,13.4,1505.3,325.3,-0.8,1.9,2470.071,13.32,0.068,112.4
2019-06-09T05:43:56,42.805,6.029,0.06,-0.024,-0.04,102.0,104.0,96.0,13.4,1505.3,325.2,-0.8,1.8,2470.053,13.32,0.064,111.8
2019-06-09T05:46:57,42.805,6.029,0.045,-0.012,-0.034,100.0,104.0,96.0,13.3,1505.3,327.4,-0.8,1.9,2470.101,13.32,0.046,104.9
2019-06-09T05:49:58,42.805,6.029,0.053,0.001,-0.013,102.0,103.0,97.0,13.4,1505.3,324.8,-0.7,1.8,2470.004,13.32,0.053,88.9
2019-06-09T05:52:59,42.805,6.029,0.066,0.0,0.013,100.0,103.0,96.0,13.3,1505.3,325.0,-0.7,1.8,2470.058,13.32,0.065,90.0
2019-06-09T05:56:00,42.805,6.029,0.056,-0.006,-0.027,100.0,105.0,96.0,13.4,1505.3,324.3,-0.7,1.8,2470.091,13.32,0.056,96.1
2019-06-09T05:59:01,42.805,6.029,0.056,0.011,0.005,99.0,105.0,97.0,13.4,1505.3,327.5,-0.7,1.8,2470.053,13.32,0.057,78.9
2019-06-09T06:02:02,42.805,6.029,0.053,-0.024,-0.019,99.0,103.0,98.0,13.4,1505.3,323.8,-0.7,1.9,2470.077,13.32,0.058,114.4
2019-06-09T06:05:03,42.805,6.029,0.059,-0.028,-0.012,98.0,102.0,97.0,13.4,1505.3,324.7,-0.8,1.8,2470.071,13.32,0.065,115.4
2019-06-09T06:08:04,42.805,6.029,0.054,-0.03,-0.016,99.0,102.0,96.0,13.4,1505.3,324.2,-0.7,1.9,2470.062,13.32,0.061,119.1
2019-06-09T06:11:05,42.805,6.029,0.053,-0.01,0.031,99.0,102.0,97.0,13.4,1505.3,326.9,-0.7,1.8,2470.106,13.32,0.053,100.7
2019-06-09T06:14:06,42.805,6.029,0.066,-0.026,0.0,97.0,102.0,98.0,13.4,1505.3,325.2,-0.7,1.9,2470.073,13.32,0.07,111.5
2019-06-09T06:17:07,42.805,6.029,0.047,-0.025,-0.003,98.0,102.0,96.0,13.4,1505.3,326.2,-0.8,1.8,2470.046,13.32,0.053,118.0
2019-06-09T06:20:08,42.805,6.029,0.038,-0.017,-0.034,98.0,101.0,96.0,13.3,1505.3,324.5,-0.7,1.9,2470.068,13.32,0.041,114.1
2019-06-09T06:23:09,42.805,6.029,0.046,-0.011,0.009,97.0,101.0,97.0,13.3,1505.3,323.1,-0.7,1.9,2470.104,13.32,0.047,103.4
2019-06-09T06:26:10,42.805,6.029,0.053,-0.006,-0.049,97.0,103.0,97.0,13.3,1505.3,324.8,-0.7,1.9,2470.018,13.32,0.053,96.5
2019-06-09T06:29:11,42.805,6.029,0.049,-0.022,-0.018,98.0,103.0,95.0,13.4,1505.3,327.8,-0.8,1.8,2470.089,13.32,0.053,114.2
2019-06-09T06:32:12,42.805,6.029,0.068,-0.027,-0.014,98.0,101.0,97.0,13.4,1505.3,325.0,-0.8,1.8,2470.048,13.32,0.073,111.7
2019-06-09T06:35:13,42.805,6.029,0.067,-0.03,-0.018,100.0,103.0,95.0,13.4,1505.3,324.1,-0.8,1.9,2470.05,13.32,0.073,114.1
2019-06-09T06:38:14,42.805,6.029,0.063,0.009,-0.01,99.0,102.0,96.0,13.4,1505.3,327.2,-0.7,1.9,2470.052,13.32,0.063,81.9
2019-06-09T06:41:15,42.805,6.029,0.069,-0.035,-0.008,99.0,101.0,96.0,13.4,1505.3,326.3,-0.7,1.9,2470.055,13.32,0.077,116.9
2019-06-09T06:44:16,42.805,6.029,0.08,-0.013,-0.021,99.0,102.0,97.0,13.4,1505.3,325.5,-0.7,1.9,2470.077,13.32,0.081,99.2
2019-06-09T06:47:17,42.805,6.029,0.054,-0.014,-0.016,101.0,102.0,96.0,13.4,1505.3,324.6,-0.7,1.8,2470.034,13.32,0.055,104.5
2019-06-09T06:50:18,42.805,6.029,0.074,-0.027,-0.017,100.0,101.0,96.0,13.4,1505.3,328.2,-0.7,1.8,2470.048,13.32,0.078,110.0
2019-06-09T06:53:19,42.805,6.029,0.059,-0.009,-0.042,99.0,101.0,96.0,13.3,1505.3,326.1,-0.7,1.8,2470.048,13.32,0.059,98.7
2019-06-09T06:56:20,42.805,6.029,0.071,-0.045,-0.005,99.0,102.0,97.0,13.3,1505.3,327.4,-0.7,1.8,2470.053,13.32,0.084,122.4
2019-06-09T06:59:21,42.805,6.029,0.065,-0.037,-0.034,99.0,101.0,97.0,13.3,1505.3,323.3,-0.7,1.8,2470.056,13.32,0.074,119.7
2019-06-09T07:02:22,42.805,6.029,0.065,-0.016,0.02,98.0,101.0,97.0,13.3,1505.3,324.0,-0.7,1.8,2470.021,13.32,0.066,103.8
2019-06-09T07:05:23,42.805,6.029,0.052,-0.032,0.0,99.0,103.0,97.0,13.4,1505.3,324.1,-0.7,1.8,2470.055,13.32,0.061,121.6
2019-06-09T07:08:24,42.805,6.029,0.041,-0.023,0.005,99.0,101.0,96.0,13.4,1505.3,324.4,-0.7,1.8,2470.059,13.32,0.047,119.3
2019-06-09T07:11:25,42.805,6.029,0.072,-0.024,0.0,99.0,101.0,97.0,13.4,1505.3,327.4,-0.8,1.8,2470.029,13.32,0.075,108.4
2019-06-09T07:14:26,42.805,6.029,0.07,-0.004,-0.02,99.0,103.0,97.0,13.3,1505.3,323.2,-0.7,1.8,2470.007,13.32,0.07,93.3
2019-06-09T07:17:27,42.805,6.029,0.057,-0.021,-0.025,99.0,101.0,96.0,13.4,1505.3,326.0,-0.7,1.9,2470.028,13.32,0.06,110.2
2019-06-09T07:20:28,42.805,6.029,0.065,-0.014,-0.025,100.0,101.0,97.0,13.4,1505.3,324.3,-0.7,1.8,2470.039,13.32,0.066,102.2
2019-06-09T07:23:29,42.805,6.029,0.048,-0.003,0.004,97.0,103.0,97.0,13.4,1505.3,328.0,-0.8,1.8,2470.082,13.32,0.048,93.6
2019-06-09T07:26:30,42.805,6.029,0.078,-0.012,-0.026,99.0,101.0,95.0,13.3,1505.3,325.4,-0.7,1.9,2470.052,13.32,0.078,98.7
2019-06-09T07:29:31,42.805,6.029,0.045,-0.024,-0.038,98.0,101.0,96.0,13.3,1505.3,324.2,-0.7,1.8,2470.067,13.32,0.051,118.1
2019-06-09T07:32:32,42.805,6.029,0.062,-0.028,-0.009,97.0,102.0,97.0,13.4,1505.3,326.0,-0.7,1.9,2470.026,13.32,0.068,114.3
2019-06-09T07:35:33,42.805,6.029,0.041,-0.004,0.0,100.0,101.0,96.0,13.3,1505.3,323.5,-0.7,1.9,2470.023,13.32,0.041,95.6
2019-06-09T07:38:34,42.805,6.029,0.066,-0.024,-0.017,100.0,103.0,97.0,13.3,1505.3,327.0,-0.7,1.8,2470.045,13.32,0.07,110.0
2019-06-09T07:41:35,42.805,6.029,0.052,-0.018,-0.003,99.0,102.0,97.0,13.3,1505.3,327.5,-0.7,1.9,2469.979,13.32,0.055,109.1
2019-06-09T07:44:36,42.805,6.029,0.087,-0.007,0.001,97.0,102.0,95.0,13.4,1505.3,323.4,-0.7,1.8,2470.054,13.32,0.087,94.6
2019-06-09T07:47:37,42.805,6.029,0.039,-0.029,-0.053,99.0,100.0,96.0,13.4,1505.3,326.4,-0.7,1.8,2470.018,13.32,0.048,126.6
2019-06-09T07:50:38,42.805,6.029,0.072,-0.033,-0.021,98.0,101.0,96.0,13.3,1505.3,325.9,-0.7,1.8,2470.018,13.32,0.079,114.6
2019-06-09T07:53:39,42.805,6.029,0.064,-0.022,-0.019,100.0,101.0,96.0,13.3,1505.3,327.0,-0.7,1.8,2470.029,13.32,0.067,109.0
2019-06-09T07:56:40,42.805,6.029,0.06,-0.009,-0.055,98.0,102.0,96.0,13.3,1505.3,326.8,-0.7,1.8,2470.033,13.32,0.06,98.5
2019-06-09T07:59:41,42.805,6.029,0.073,-0.013,0.001,98.0,101.0,96.0,13.3,1505.3,325.1,-0.8,1.8,2470.047,13.32,0.074,100.1
2019-06-09T08:02:42,42.805,6.029,0.048,-0.024,-0.05,99.0,102.0,96.0,13.3,1505.3,326.7,-0.7,1.8,2470.024,13.32,0.053,116.6
2019-06-09T08:05:43,42.805,6.029,0.074,-0.01,-0.02,98.0,101.0,97.0,13.3,1505.3,326.9,-0.7,1.8,2470.01,13.32,0.074,97.7
2019-06-09T08:08:44,42.805,6.029,0.068,-0.017,-0.025,99.0,100.0,96.0,13.4,1505.3,325.1,-0.8,1.8,2470.03,13.32,0.07,104.0
2019-06-09T08:11:45,42.805,6.029,0.063,-0.025,-0.039,98.0,102.0,96.0,13.4,1505.3,326.4,-0.8,1.9,2470.032,13.32,0.067,111.6
2019-06-09T08:14:46,42.805,6.029,0.063,-0.019,-0.012,98.0,102.0,97.0,13.4,1505.3,326.0,-0.7,1.9,2470.062,13.32,0.065,106.8
2019-06-09T08:17:47,42.805,6.029,0.061,0.019,0.015,100.0,104.0,95.0,13.4,1505.3,327.6,-0.7,1.9,2470.029,13.32,0.063,72.7
2019-06-09T08:20:48,42.805,6.029,0.033,-0.009,-0.023,99.0,102.0,96.0,13.3,1505.3,323.2,-0.7,1.8,2470.02,13.32,0.034,105.3
2019-06-09T08:23:49,42.805,6.029,0.054,-0.017,0.017,97.0,102.0,98.0,13.4,1505.3,326.3,-0.7,1.8,2470.041,13.32,0.056,107.5
2019-06-09T08:26:50,42.805,6.029,0.061,-0.016,0.01,100.0,100.0,97.0,13.4,1505.3,325.7,-0.8,1.8,2470.02,13.32,0.063,104.7
2019-06-09T08:29:51,42.805,6.029,0.089,-0.022,0.004,99.0,102.0,96.0,13.4,1505.3,326.3,-0.7,1.8,2470.066,13.32,0.091,103.9
2019-06-09T08:32:52,42.805,6.029,0.069,-0.007,-0.027,100.0,101.0,95.0,13.4,1505.3,326.6,-0.7,1.9,2470.023,13.32,0.069,95.8
2019-06-09T08:35:53,42.805,6.029,0.069,-0.022,-0.026,99.0,101.0,95.0,13.3,1505.3,326.6,-0.7,1.9,2470.086,13.32,0.072,107.7
2019-06-09T08:38:54,42.805,6.029,0.067,-0.002,-0.015,99.0,101.0,96.0,13.3,1505.3,327.5,-0.7,1.8,2470.01,13.32,0.067,91.7
2019-06-09T08:41:55,42.805,6.029,0.065,-0.002,-0.037,98.0,102.0,96.0,13.4,1505.3,326.9,-0.7,1.9,2470.072,13.32,0.065,91.8
2019-06-09T08:44:56,42.805,6.029,0.062,-0.01,-0.04,99.0,101.0,96.0,13.4,1505.3,325.6,-0.7,1.8,2470.047,13.32,0.062,99.2
2019-06-09T08:47:57,42.805,6.029,0.062,-0.005,-0.003,100.0,101.0,98.0,13.4,1505.3,325.3,-0.8,1.9,2470.024,13.32,0.062,94.6
2019-06-09T08:50:58,42.805,6.029,0.073,-0.002,-0.001,99.0,101.0,96.0,13.4,1505.3,323.6,-0.7,1.9,2470.047,13.32,0.073,91.6
2019-06-09T08:53:59,42.805,6.029,0.064,-0.021,0.0,99.0,103.0,96.0,13.3,1505.3,325.9,-0.8,1.9,2470.066,13.32,0.067,108.2
2019-06-09T08:57:00,42.805,6.029,0.058,-0.009,-0.031,99.0,103.0,96.0,13.4,1505.3,324.8,-0.7,1.8,2470.013,13.32,0.058,98.8
2019-06-09T09:00:01,42.805,6.029,0.061,-0.011,-0.009,99.0,102.0,95.0,13.4,1505.3,327.4,-0.7,1.8,2470.059,13.32,0.061,100.2
2019-06-09T09:03:02,42.805,6.029,0.061,-0.019,-0.009,99.0,104.0,96.0,13.4,1505.3,326.3,-0.7,1.8,2470.047,13.32,0.063,107.3
2019-06-09T09:06:03,42.805,6.029,0.076,-0.014,-0.005,100.0,105.0,95.0,13.4,1505.3,327.0,-0.7,1.9,2470.035,13.32,0.077,100.4
2019-06-09T09:09:04,42.805,6.029,0.056,-0.032,-0.013,99.0,102.0,96.0,13.4,1505.3,325.2,-0.7,1.8,2470.083,13.32,0.064,119.7
2019-06-09T09:12:05,42.805,6.029,0.036,0.0,-0.019,100.0,101.0,96.0,13.3,1505.3,323.1,-0.8,1.9,2470.067,13.32,0.036,90.0
2019-06-09T09:15:06,42.805,6.029,0.054,-0.02,-0.04,98.0,102.0,97.0,13.4,1505.3,324.0,-0.7,1.9,2470.027,13.32,0.057,110.3
2019-06-09T09:18:07,42.805,6.029,0.046,-0.01,-0.003,100.0,104.0,97.0,13.4,1505.3,326.6,-0.8,1.9,2470.053,13.32,0.047,102.3
2019-06-09T09:21:08,42.805,6.029,0.088,-0.026,-0.006,99.0,102.0,96.0,13.4,1505.3,323.8,-0.7,1.8,2470.064,13.32,0.091,106.5
2019-06-09T09:24:09,42.805,6.029,0.057,-0.016,-0.008,99.0,102.0,98.0,13.4,1505.3,326.6,-0.7,1.8,2470.077,13.32,0.059,105.7
2019-06-09T09:27:10,42.805,6.029,0.062,-0.017,-0.015,101.0,102.0,97.0,13.4,1505.3,327.8,-0.7,1.8,2470.055,13.32,0.064,105.3
2019-06-09T09:30:11,42.805,6.029,0.059,0.013,0.008,99.0,104.0,97.0,13.3,1505.3,324.1,-0.8,1.8,2470.074,13.32,0.06,77.6
2019-06-09T09:33:12,42.805,6.029,0.081,-0.019,0.012,101.0,100.0,97.0,13.4,1505.3,325.9,-0.7,1.9,2470.061,13.32,0.083,103.2
2019-06-09T09:36:13,42.805,6.029,0.077,-0.028,-0.01,100.0,101.0,97.0,13.4,1505.3,327.3,-0.7,1.9,2470.051,13.32,0.081,110.0
2019-06-09T09:39:14,42.805,6.029,0.063,0.0,-0.029,100.0,102.0,95.0,13.4,1505.3,323.0,-0.7,1.8,2470.063,13.32,0.062,90.0
2019-06-09T09:42:15,42.805,6.029,0.074,-0.023,-0.021,100.0,103.0,96.0,13.4,1505.3,326.7,-0.7,1.8,2470.086,13.32,0.077,107.3
2019-06-09T09:45:16,42.805,6.029,0.089,-0.011,-0.016,100.0,104.0,96.0,13.4,1505.3,327.8,-0.7,1.9,2470.064,13.32,0.089,97.0